Location: Unspecified
(0.0000°N, 0.0000°E)
Time: 19:12:36
(UTC+00:00)

deb Kosmos-249 - Visible Passes

Search period start: 02 March 2024 00:00
Search period end: 12 March 2024 00:00
Orbit: 732 x 1710 km, 62.3° (Epoch: 01 March)

Date Brightness Start Highest point End Pass type
(mag) Time Alt. Az. Time Alt. Az. Time Alt. Az.
02 Mar ? 20:28:42 10° SSW 20:30:16 21° SSW 20:30:16 21° SSW visible
03 Mar ? 20:17:02 10° SSW 20:20:01 37° SSW 20:20:01 37° SSW visible
04 Mar ? 20:05:23 10° SSW 20:09:59 71° SSW 20:09:59 71° SSW visible
05 Mar ? 19:53:43 10° SSW 19:58:57 83° WNW 20:00:13 56° NNE visible
06 Mar ? 19:42:02 10° SSW 19:47:16 79° WNW 19:50:49 26° NNE visible
07 Mar ? 05:44:15 10° NNE 05:50:19 18° ENE 05:56:00 10° E visible
07 Mar ? 19:30:22 10° SSW 19:35:36 75° WNW 19:41:52 10° NNE visible
08 Mar ? 05:32:21 10° NNE 05:38:40 18° ENE 05:44:34 10° ESE visible
08 Mar ? 19:18:42 10° SSW 19:23:54 71° WNW 19:30:10 10° NNE visible
09 Mar ? 05:20:27 10° NNE 05:27:00 19° ENE 05:33:05 10° ESE visible
09 Mar ? 19:07:01 10° SSW 19:12:13 67° WNW 19:18:26 10° NNE visible
10 Mar ? 05:08:33 10° NNE 05:15:19 20° ENE 05:21:36 10° ESE visible
10 Mar ? 18:55:20 10° SW 19:00:31 63° WNW 19:06:43 10° NNE visible
11 Mar ? 04:56:40 10° NNE 05:03:38 21° ENE 05:10:05 10° ESE visible
11 Mar ? 18:43:39 10° SW 18:48:49 60° WNW 18:54:58 10° NNE visible
